TVS1KT LROP-LGIR

Flight info

Callsign TVS1KT
Flight time 1h 24m
Altitude 31000
Route POLUN DCT TIMUR DCT NIKTI DCT KOROS UT162 NEVRA UT514 XAVIS
Aircraft B738/M-SDE2E3FGHIRWXY/LB1

Departure

Time 2026-05-05 17:45
Airport Bucharest Henri Coandă International Airport (LROP)

Arrival

Time 2026-05-05 19:09
Airport Heraklion International Nikos Kazantzakis Airport (LGIR)
Time Latitude Longitude Altitude Speed Heading
2026-05-05 16:41 44.56891 26.08832 304 ft 0 kts 174°
2026-05-05 17:37 44.56887 26.08832 304 ft 3 kts 173°
2026-05-05 17:37 44.56853 26.08872 304 ft 11 kts 92°
2026-05-05 17:37 44.56862 26.09012 306 ft 18 kts 84°
2026-05-05 17:38 44.56877 26.09205 306 ft 20 kts 83°
2026-05-05 17:38 44.56918 26.09344 308 ft 13 kts 22°
2026-05-05 17:38 44.56985 26.09428 309 ft 17 kts 73°
2026-05-05 17:38 44.57003 26.09621 309 ft 20 kts 84°
2026-05-05 17:39 44.57017 26.09809 309 ft 17 kts 84°
2026-05-05 17:39 44.57096 26.09898 308 ft 17 kts 354°
2026-05-05 17:39 44.57211 26.09879 310 ft 15 kts 352°
2026-05-05 17:39 44.57315 26.09864 312 ft 14 kts 353°
2026-05-05 17:40 44.57417 26.09849 313 ft 16 kts 356°
2026-05-05 17:40 44.57541 26.09836 313 ft 19 kts
2026-05-05 17:40 44.57608 26.09975 315 ft 20 kts 84°
2026-05-05 17:40 44.57625 26.10195 312 ft 25 kts 84°
2026-05-05 17:41 44.57644 26.10455 310 ft 29 kts 83°
2026-05-05 17:41 44.57668 26.10760 308 ft 33 kts 84°
2026-05-05 17:41 44.57693 26.11088 306 ft 33 kts 84°
2026-05-05 17:41 44.57719 26.11416 306 ft 33 kts 84°
2026-05-05 17:42 44.57743 26.11737 306 ft 33 kts 84°
2026-05-05 17:42 44.57766 26.12061 306 ft 33 kts 84°
2026-05-05 17:42 44.57791 26.12385 303 ft 34 kts 84°
2026-05-05 17:42 44.57814 26.12692 303 ft 23 kts 84°
2026-05-05 17:43 44.57845 26.12854 303 ft 11 kts 34°
2026-05-05 17:43 44.57872 26.12861 303 ft 0 kts 348°
2026-05-05 17:44 44.57877 26.12859 303 ft 4 kts 340°
2026-05-05 17:44 44.57949 26.12794 303 ft 18 kts 322°
2026-05-05 17:44 44.57978 26.12591 303 ft 35 kts 264°
2026-05-05 17:44 44.57930 26.11947 306 ft 97 kts 263°
2026-05-05 17:45 44.57838 26.10731 309 ft 150 kts 264°
2026-05-05 17:45 44.57721 26.09106 476 ft 177 kts 263°
2026-05-05 17:45 44.57609 26.07381 1084 ft 181 kts 264°
2026-05-05 17:45 44.57493 26.05629 1661 ft 183 kts 262°
2026-05-05 17:46 44.57175 26.03871 2076 ft 192 kts 239°
2026-05-05 17:46 44.56444 26.02299 2583 ft 197 kts 235°
2026-05-05 17:46 44.55693 26.00678 3083 ft 204 kts 239°
2026-05-05 17:46 44.54944 25.98909 3508 ft 215 kts 240°
2026-05-05 17:47 44.54190 25.97056 3936 ft 227 kts 241°
2026-05-05 17:47 44.53429 25.95133 4512 ft 232 kts 242°
2026-05-05 17:47 44.52613 25.93072 4880 ft 247 kts 242°
2026-05-05 17:47 44.51749 25.90918 5223 ft 263 kts 242°
2026-05-05 17:48 44.50829 25.88645 5734 ft 272 kts 242°
2026-05-05 17:48 44.49896 25.86344 6345 ft 277 kts 243°
2026-05-05 17:48 44.48947 25.84005 6951 ft 282 kts 243°
2026-05-05 17:48 44.47974 25.81599 7598 ft 286 kts 243°
2026-05-05 17:49 44.46996 25.79173 8272 ft 291 kts 243°
2026-05-05 17:49 44.45995 25.76694 8876 ft 296 kts 243°
2026-05-05 17:49 44.44970 25.74169 9527 ft 302 kts 243°
2026-05-05 17:49 44.43932 25.71616 10134 ft 306 kts 243°
2026-05-05 17:50 44.42860 25.68980 10694 ft 318 kts 243°
2026-05-05 17:50 44.41746 25.66236 11082 ft 333 kts 243°
2026-05-05 17:50 44.40571 25.63348 11508 ft 346 kts 243°
2026-05-05 17:50 44.39380 25.60430 12106 ft 352 kts 243°
2026-05-05 17:51 44.38170 25.57470 12782 ft 356 kts 243°
2026-05-05 17:51 44.36931 25.54443 13483 ft 360 kts 243°
2026-05-05 17:51 44.35699 25.51429 14179 ft 363 kts 243°
2026-05-05 17:51 44.34446 25.48361 14877 ft 367 kts 242°
2026-05-05 17:52 44.33172 25.45239 15610 ft 370 kts 242°
2026-05-05 17:52 44.31900 25.42115 16298 ft 373 kts 242°
2026-05-05 17:52 44.30625 25.38988 16964 ft 377 kts 242°
2026-05-05 17:52 44.29311 25.35779 17636 ft 380 kts 242°
2026-05-05 17:53 44.27998 25.32590 18271 ft 384 kts 241°
2026-05-05 17:53 44.26666 25.29372 18919 ft 386 kts 241°
2026-05-05 17:53 44.25329 25.26149 19568 ft 388 kts 242°
2026-05-05 17:53 44.23953 25.22857 20159 ft 392 kts 240°
2026-05-05 17:54 44.22455 25.19674 20757 ft 396 kts 237°
2026-05-05 17:54 44.20829 25.16598 21312 ft 400 kts 234°
2026-05-05 17:54 44.19122 25.13535 21920 ft 402 kts 234°
2026-05-05 17:54 44.17376 25.10455 22453 ft 406 kts 234°
2026-05-05 17:55 44.15621 25.07358 23018 ft 408 kts 234°
2026-05-05 17:55 44.13868 25.04252 23539 ft 411 kts 234°
2026-05-05 17:55 44.12106 25.01110 24057 ft 414 kts 235°
2026-05-05 17:55 44.10348 24.97963 24518 ft 418 kts 235°
2026-05-05 17:56 44.08580 24.94791 25015 ft 421 kts 235°
2026-05-05 17:56 44.06778 24.91550 25490 ft 423 kts 236°
2026-05-05 17:56 44.04967 24.88291 25923 ft 427 kts 236°
2026-05-05 17:56 44.03147 24.85016 26424 ft 429 kts 236°
2026-05-05 17:57 44.01318 24.81726 26887 ft 431 kts 236°
2026-05-05 17:57 43.99475 24.78414 27314 ft 434 kts 236°
2026-05-05 17:57 43.97616 24.75073 27704 ft 438 kts 236°
2026-05-05 17:57 43.95758 24.71738 28137 ft 440 kts 236°
2026-05-05 17:58 43.93883 24.68376 28555 ft 442 kts 236°
2026-05-05 17:58 43.91973 24.64958 28977 ft 444 kts 236°
2026-05-05 17:58 43.90082 24.61578 29351 ft 447 kts 236°
2026-05-05 17:58 43.88174 24.58169 29691 ft 450 kts 236°
2026-05-05 17:59 43.86255 24.54746 30111 ft 451 kts 236°
2026-05-05 17:59 43.84342 24.51337 30377 ft 455 kts 237°
2026-05-05 17:59 43.82689 24.48395 30563 ft 453 kts 237°
2026-05-05 18:00 43.81599 24.46458 30685 ft 451 kts 237°
2026-05-05 18:00 43.80497 24.44504 30811 ft 449 kts 237°
2026-05-05 18:00 43.79129 24.42079 30948 ft 449 kts 237°
2026-05-05 18:01 43.77208 24.38672 30976 ft 450 kts 237°
2026-05-05 18:01 43.73297 24.31932 30980 ft 456 kts 232°
2026-05-05 18:01 43.71012 24.28856 30979 ft 461 kts 221°
2026-05-05 18:02 43.68294 24.26445 30980 ft 465 kts 209°
2026-05-05 18:02 43.65273 24.24786 30986 ft 469 kts 198°
2026-05-05 18:02 43.62122 24.23781 30987 ft 473 kts 191°
2026-05-05 18:03 43.55578 24.22850 30996 ft 474 kts 184°
2026-05-05 18:03 43.48957 24.22511 31003 ft 474 kts 183°
2026-05-05 18:04 43.42371 24.22274 31013 ft 474 kts 183°
2026-05-05 18:04 43.35773 24.21992 31012 ft 474 kts 184°
2026-05-05 18:05 43.29180 24.21664 31015 ft 474 kts 184°
2026-05-05 18:05 43.22598 24.21309 31023 ft 474 kts 184°
2026-05-05 18:06 43.15984 24.20942 31028 ft 474 kts 184°
2026-05-05 18:06 43.09437 24.20577 31036 ft 474 kts 184°
2026-05-05 18:07 43.02796 24.20207 31042 ft 475 kts 184°
2026-05-05 18:07 42.96220 24.19841 31047 ft 475 kts 184°
2026-05-05 18:08 42.89602 24.19474 31065 ft 476 kts 184°
2026-05-05 18:08 42.83020 24.19111 31082 ft 476 kts 184°
2026-05-05 18:09 42.76384 24.18745 31090 ft 478 kts 184°
2026-05-05 18:09 42.69723 24.18379 31088 ft 476 kts 184°
2026-05-05 18:10 42.63118 24.18016 31082 ft 476 kts 184°
2026-05-05 18:10 42.56488 24.17652 31071 ft 479 kts 184°
2026-05-05 18:11 42.49837 24.17287 31061 ft 478 kts 184°
2026-05-05 18:11 42.43163 24.16924 31058 ft 479 kts 184°
2026-05-05 18:12 42.36502 24.16561 31061 ft 478 kts 184°
2026-05-05 18:12 42.29848 24.16201 31055 ft 479 kts 184°
2026-05-05 18:13 42.23162 24.15837 31061 ft 480 kts 185°
2026-05-05 18:13 42.16507 24.15478 31076 ft 480 kts 185°
2026-05-05 18:14 42.09834 24.15119 31084 ft 480 kts 185°
2026-05-05 18:14 42.03171 24.14760 31077 ft 480 kts 185°
2026-05-05 18:15 41.96520 24.14402 31081 ft 480 kts 185°
2026-05-05 18:15 41.89829 24.14042 31083 ft 481 kts 185°
2026-05-05 18:16 41.83132 24.13684 31088 ft 483 kts 185°
2026-05-05 18:16 41.76431 24.13326 31093 ft 480 kts 185°
2026-05-05 18:17 41.69733 24.12970 31095 ft 481 kts 185°
2026-05-05 18:17 41.63063 24.12616 31090 ft 482 kts 185°
2026-05-05 18:18 41.56343 24.12437 31087 ft 483 kts 180°
2026-05-05 18:18 41.49646 24.13582 31083 ft 486 kts 170°
2026-05-05 18:19 41.43064 24.15679 31080 ft 488 kts 167°
2026-05-05 18:19 41.36487 24.18035 31076 ft 486 kts 166°
2026-05-05 18:20 41.29978 24.20344 31073 ft 487 kts 167°
2026-05-05 18:20 41.23412 24.22601 31066 ft 487 kts 167°
2026-05-05 18:21 41.16845 24.24813 31057 ft 488 kts 167°
2026-05-05 18:21 41.10262 24.27008 31044 ft 488 kts 167°
2026-05-05 18:22 41.03652 24.29153 31038 ft 488 kts 169°
2026-05-05 18:22 40.96977 24.30702 31037 ft 488 kts 174°
2026-05-05 18:23 40.90249 24.31977 31037 ft 489 kts 174°
2026-05-05 18:23 40.83567 24.33256 31039 ft 488 kts 174°
2026-05-05 18:24 40.76804 24.34608 31040 ft 489 kts 174°
2026-05-05 18:24 40.70087 24.35994 31039 ft 490 kts 173°
2026-05-05 18:25 40.63353 24.37405 31038 ft 491 kts 173°
2026-05-05 18:25 40.56592 24.38829 31040 ft 491 kts 173°
2026-05-05 18:26 40.49840 24.40251 31039 ft 492 kts 173°
2026-05-05 18:26 40.43080 24.41672 31040 ft 492 kts 173°
2026-05-05 18:27 40.36364 24.43082 31040 ft 491 kts 173°
2026-05-05 18:27 40.29584 24.44499 31040 ft 493 kts 173°
2026-05-05 18:28 40.19457 24.46611 31039 ft 493 kts 174°
2026-05-05 18:28 40.12672 24.48021 31042 ft 494 kts 174°
2026-05-05 18:29 40.05871 24.49433 31039 ft 495 kts 174°
2026-05-05 18:29 39.99099 24.50836 31039 ft 496 kts 174°
2026-05-05 18:30 39.92291 24.52245 31037 ft 495 kts 174°
2026-05-05 18:30 39.85454 24.53658 31035 ft 495 kts 174°
2026-05-05 18:31 39.78682 24.55053 31039 ft 496 kts 174°
2026-05-05 18:31 39.71868 24.56451 31035 ft 496 kts 173°
2026-05-05 18:32 39.65042 24.57851 31037 ft 498 kts 174°
2026-05-05 18:32 39.58206 24.59250 31039 ft 498 kts 174°
2026-05-05 18:33 39.51340 24.60653 31038 ft 499 kts 174°
2026-05-05 18:33 39.44481 24.62053 31035 ft 499 kts 174°
2026-05-05 18:34 39.37616 24.63452 31038 ft 499 kts 174°
2026-05-05 18:34 39.30730 24.64850 31035 ft 501 kts 174°
2026-05-05 18:35 39.23808 24.66254 31041 ft 499 kts 174°
2026-05-05 18:35 39.16942 24.67642 31042 ft 502 kts 174°
2026-05-05 18:36 39.10068 24.69030 31036 ft 501 kts 175°
2026-05-05 18:36 39.03166 24.70420 31040 ft 504 kts 175°
2026-05-05 18:37 38.96257 24.71811 31043 ft 501 kts 175°
2026-05-05 18:37 38.89298 24.73207 31039 ft 503 kts 175°
2026-05-05 18:38 38.82398 24.74590 31046 ft 504 kts 175°
2026-05-05 18:38 38.75457 24.75977 31046 ft 503 kts 175°
2026-05-05 18:39 38.68504 24.77362 31045 ft 503 kts 175°
2026-05-05 18:39 38.61563 24.78743 31047 ft 506 kts 175°
2026-05-05 18:40 38.54617 24.80125 31048 ft 505 kts 175°
2026-05-05 18:40 38.47680 24.81498 31044 ft 504 kts 175°
2026-05-05 18:41 38.40744 24.82868 31049 ft 508 kts 175°
2026-05-05 18:41 38.33750 24.84251 31049 ft 506 kts 175°
2026-05-05 18:42 38.26784 24.85625 31050 ft 508 kts 175°
2026-05-05 18:42 38.19782 24.87003 31050 ft 510 kts 175°
2026-05-05 18:43 38.12781 24.88376 31047 ft 509 kts 175°
2026-05-05 18:43 38.05835 24.89740 31048 ft 506 kts 175°
2026-05-05 18:44 37.98835 24.91109 31050 ft 509 kts 175°
2026-05-05 18:44 37.91868 24.92470 31049 ft 506 kts 175°
2026-05-05 18:45 37.84853 24.93837 31049 ft 507 kts 175°
2026-05-05 18:45 37.77935 24.95186 31049 ft 506 kts 175°
2026-05-05 18:46 37.70960 24.96539 31050 ft 505 kts 175°
2026-05-05 18:46 37.64007 24.97885 31050 ft 507 kts 175°
2026-05-05 18:47 37.57040 24.99232 31054 ft 506 kts 175°
2026-05-05 18:47 37.50074 25.00580 31054 ft 505 kts 175°
2026-05-05 18:48 37.43122 25.01919 31055 ft 507 kts 175°
2026-05-05 18:48 37.36132 25.03262 31054 ft 506 kts 175°
2026-05-05 18:49 37.29190 25.04594 31054 ft 506 kts 175°
2026-05-05 18:49 37.22242 25.05929 31053 ft 503 kts 175°
2026-05-05 18:50 37.15304 25.07253 31056 ft 507 kts 175°
2026-05-05 18:50 37.08358 25.08573 31056 ft 504 kts 175°
2026-05-05 18:51 37.01409 25.09896 31056 ft 507 kts 175°
2026-05-05 18:51 36.94453 25.11221 31059 ft 505 kts 175°
2026-05-05 18:52 36.87508 25.12541 31054 ft 504 kts 175°
2026-05-05 18:52 36.80630 25.13872 31047 ft 493 kts 174°
2026-05-05 18:53 36.73935 25.15219 30974 ft 482 kts 174°
2026-05-05 18:53 36.70634 25.15887 30576 ft 489 kts 174°
2026-05-05 18:53 36.67242 25.16562 30070 ft 497 kts 174°
2026-05-05 18:54 36.63779 25.17245 29438 ft 509 kts 174°
2026-05-05 18:54 36.60269 25.17925 28709 ft 522 kts 174°
2026-05-05 18:54 36.56602 25.18625 27964 ft 534 kts 174°
2026-05-05 18:54 36.52937 25.19321 27234 ft 545 kts 174°
2026-05-05 18:55 36.49153 25.20030 26838 ft 542 kts 174°
2026-05-05 18:55 36.45487 25.20685 26463 ft 530 kts 175°
2026-05-05 18:55 36.41839 25.21320 26083 ft 519 kts 175°
2026-05-05 18:55 36.38294 25.21935 25369 ft 516 kts 175°
2026-05-05 18:56 36.34774 25.22552 24856 ft 508 kts 174°
2026-05-05 18:56 36.31268 25.23175 24209 ft 504 kts 174°
2026-05-05 18:56 36.27844 25.23793 23582 ft 500 kts 174°
2026-05-05 18:56 36.24432 25.24416 23038 ft 493 kts 174°
2026-05-05 18:57 36.21059 25.25038 22448 ft 489 kts 174°
2026-05-05 18:57 36.17704 25.25661 21800 ft 486 kts 174°
2026-05-05 18:57 36.14389 25.26276 21269 ft 478 kts 174°
2026-05-05 18:57 36.11151 25.26878 20283 ft 474 kts 174°
2026-05-05 18:58 36.07899 25.27481 19025 ft 476 kts 174°
2026-05-05 18:58 36.04621 25.28087 17961 ft 472 kts 173°
2026-05-05 18:58 36.01409 25.28681 16980 ft 466 kts 173°
2026-05-05 18:58 35.98245 25.29264 16098 ft 457 kts 173°
2026-05-05 18:59 35.95139 25.29838 15185 ft 450 kts 172°
2026-05-05 18:59 35.92070 25.30406 14286 ft 443 kts 172°
2026-05-05 18:59 35.89094 25.30957 13391 ft 435 kts 172°
2026-05-05 18:59 35.86125 25.31506 12468 ft 429 kts 171°
2026-05-05 19:00 35.83213 25.32043 11525 ft 423 kts 171°
2026-05-05 19:00 35.80302 25.32581 10565 ft 417 kts 171°
2026-05-05 19:00 35.77490 25.33100 10069 ft 398 kts 171°
2026-05-05 19:00 35.74835 25.33590 9699 ft 379 kts 171°
2026-05-05 19:01 35.72292 25.34059 9319 ft 363 kts 171°
2026-05-05 19:01 35.69829 25.34515 8968 ft 348 kts 171°
2026-05-05 19:01 35.67495 25.34947 8710 ft 332 kts 171°
2026-05-05 19:01 35.65265 25.35361 8355 ft 322 kts 171°
2026-05-05 19:02 35.63081 25.35765 8116 ft 308 kts 171°
2026-05-05 19:02 35.61018 25.36145 7865 ft 296 kts 170°
2026-05-05 19:02 35.58980 25.36520 7382 ft 294 kts 170°
2026-05-05 19:02 35.56973 25.36890 7010 ft 289 kts 170°
2026-05-05 19:03 35.55004 25.37251 6664 ft 282 kts 170°
2026-05-05 19:03 35.53084 25.37598 6327 ft 278 kts 172°
2026-05-05 19:03 35.51172 25.37927 5991 ft 275 kts 171°
2026-05-05 19:03 35.49282 25.38271 5654 ft 277 kts 171°
2026-05-05 19:04 35.47351 25.38631 5288 ft 279 kts 171°
2026-05-05 19:04 35.45463 25.39028 5145 ft 271 kts 166°
2026-05-05 19:04 35.43734 25.39761 5075 ft 257 kts 152°
2026-05-05 19:04 35.42192 25.40804 5006 ft 246 kts 147°
2026-05-05 19:05 35.40765 25.41876 4934 ft 240 kts 145°
2026-05-05 19:05 35.39325 25.42960 4867 ft 245 kts 150°
2026-05-05 19:05 35.37677 25.43591 4772 ft 252 kts 179°
2026-05-05 19:05 35.35995 25.43092 4637 ft 251 kts 214°
2026-05-05 19:06 35.34774 25.41588 4104 ft 259 kts 244°
2026-05-05 19:06 35.34022 25.39586 3525 ft 262 kts 252°
2026-05-05 19:06 35.33359 25.37540 3010 ft 251 kts 252°
2026-05-05 19:06 35.32854 25.35550 2450 ft 240 kts 262°
2026-05-05 19:07 35.32773 25.33615 2187 ft 217 kts 278°
2026-05-05 19:07 35.32946 25.31875 2003 ft 198 kts 279°
2026-05-05 19:07 35.33073 25.30218 1984 ft 194 kts 276°
2026-05-05 19:07 35.33176 25.28553 1718 ft 204 kts 276°
2026-05-05 19:08 35.33308 25.26807 1405 ft 207 kts 276°
2026-05-05 19:08 35.33441 25.25038 1107 ft 208 kts 275°
2026-05-05 19:08 35.33564 25.23280 778 ft 211 kts 275°
2026-05-05 19:08 35.33720 25.21506 486 ft 210 kts 276°
2026-05-05 19:09 35.33865 25.19735 191 ft 208 kts 274°
2026-05-05 19:09 35.33974 25.18045 87 ft 173 kts 273°
2026-05-05 19:09 35.34047 25.16950 82 ft 95 kts 275°
2026-05-05 19:09 35.34091 25.16361 79 ft 36 kts 274°
2026-05-05 19:10 35.34098 25.16253 79 ft 0 kts 274°
2026-05-05 19:16 35.34098 25.16241 79 ft 3 kts 274°
2026-05-05 19:17 35.34103 25.16198 79 ft 5 kts 284°
2026-05-05 19:17 35.34112 25.16165 79 ft 3 kts 278°
2026-05-05 19:17 35.34107 25.16140 79 ft 3 kts 234°
2026-05-05 19:17 35.34092 25.16128 80 ft 2 kts 191°
2026-05-05 19:18 35.34074 25.16134 80 ft 2 kts 135°
2026-05-05 19:18 35.34067 25.16144 80 ft 1 kts 119°
2026-05-05 19:18 35.34063 25.16151 80 ft 0 kts 116°
2026-05-05 19:18 35.34066 25.16157 80 ft 1 kts 62°
2026-05-05 19:19 35.34066 25.16164 80 ft 0 kts 43°
2026-05-05 19:19 35.34070 25.16169 80 ft 2 kts 45°
2026-05-05 19:19 35.34072 25.16177 79 ft 1 kts 129°
2026-05-05 19:19 35.34074 25.16181 79 ft 0 kts 43°
2026-05-05 19:20 35.34075 25.16187 80 ft 0 kts 88°
2026-05-05 19:20 35.34081 25.16191 80 ft 1 kts 40°
2026-05-05 19:20 35.34092 25.16212 79 ft 4 kts 58°
2026-05-05 19:20 35.34100 25.16228 79 ft 0 kts 73°
2026-05-05 19:21 35.34098 25.16244 79 ft 3 kts 95°
2026-05-05 19:21 35.34095 25.16290 79 ft 6 kts 95°
2026-05-05 19:21 35.34091 25.16352 79 ft 7 kts 95°
2026-05-05 19:21 35.34086 25.16414 79 ft 7 kts 95°
2026-05-05 19:22 35.34082 25.16475 80 ft 7 kts 95°